THORAD DELTA 1 DEB, 9697

Orbit data source: Space-Track

THORAD DELTA 1 DEB, 9697 is space debris in SSO originally from a launch on Fri, 15 Nov 1974 UTC launched from the Air Force Western Test Range (AFWTR). Debris objects in space refer to the collection of defunct objects orbiting the Earth. Examples of debris include non-operational satellites, rocket bodies, and fragments generated from explosions, collisions, or faulty payload assembly.

Loading next visibility...
Identifier
9697, 1974-089DW
Orbit
SSO
Country
Flag of USUS
Related business
Manufacturer
Unknown
Mission
Spacecraft
Bus & Motor
Unknown
Mass
Unknown
Launch date (UTC)
1974-11-15 (52 years ago)
Launch vehicle
Unknown
Launch site
Air Force Western Test Range (AFWTR)
Object type
Payload
Rocket body
Debris
Shape & HBR
Unknown shape, 0.1 m
Radar Cross Section
Small (<0.1 m²)

Expand to show TLE details & history
Last TLE update: 2 days ago

TLE from 2 days ago
0 THORAD DELTA 1 DEB
1 09697U 74089DW  26144.25835958 -.00000008  00000-0  21804-3 0  9998
2 09697 101.8125 257.0270 0146902 138.1356 252.3668 12.53777428356285
Epoch: 2026-05-24T06:12Z
TLE epoch observation values (Epoch: 2026-05-24T06:12:02.267Z)
Latitude
28.28159°
Longitude
-84.27456°
Altitude
1,488.289 km
Speed
7.106 km/s
True Right ascension
16h 42m 23s
True Declination
28° 09' 06"
Sunlit
Object was in full shadow at epoch
Visualization orbit readout
Latitude
Unknown
Longitude
Unknown
Altitude
Unknown
Speed
Unknown
Apparent Right ascension
Unknown
Apparent Declination
Unknown
Sunlit
N/A
Visualization observer readout
Local Sidereal Time
07:09:33
Azimuth
Unknown
Elevation
Unknown
Doppler factor
Unknown
Orbital elements
Apogee altitude
1,561.222 km
Perigee altitude
1,331.337 km
Semi-major axis
7,824.416 km
Eccentricity
0.01469
Inclination
101.8125°
RAAN
257.027°
Arg. of periapsis
138.1356°
True anomaly
250.7716°
Mean anomaly
252.3668°
Eccentric anomaly
251.56829°
Mean motion
3.13592 °/min
Orbital period
114.8 mins
BSTAR
0.00021804
Loading maneuver chart data...
Computing Atmospheric mass density...

Documentation

Showing up to 5 results
|